Location: El Águila
(10.4167°N, 66.7167°W)
Time: 22:38:23
(UTC+00:00)

SWIFT - Pass Details

Date: 09 April 2023
Orbit: 527 x 541 km, 20.6° (Epoch: 28 May)

Event Time Altitude Azimuth Distance (km) Brightness Sun altitude
Rises 23:16:44 0° 298° (WNW) 2,642 7.4 -10.3°
Reaches altitude 10° 23:19:30 10° 316° (NW) 1,752 5.8 -11.0°
Maximum altitude 23:22:27 19° 3° (N) 1,273 4.3 -11.7°
Drops below altitude 10° 23:25:25 10° 50° (NE) 1,750 4.5 -12.4°
Enters shadow 23:25:43 - 53° (NE) 1,836 4.6 -12.5°
